Location: Alexander
(41.3564°N, 81.5960°W)
Time: 08:15:49
(UTC+00:00)

BREEZE-M DEB (TANK) - Pass Details

Date: 24 January 2021
Orbit: 327 x 16272 km, 49.5° (Epoch: 03 March)

Event Time Altitude Azimuth Distance (km) Brightness Sun altitude
Exits shadow 11:59:57 - 298° (WNW) 3,899 6.0 -8.6°
Reaches altitude 10° 12:00:22 10° 298° (WNW) 3,703 5.9 -8.5°
Maximum altitude 12:06:55 36° 233° (SW) 1,013 3.4 -7.4°
Drops below altitude 10° 12:09:37 10° 163° (SSE) 1,508 5.1 -6.9°
Sets 12:11:05 0° 152° (SSE) 2,170 6.2 -6.6°
